• In Deutschland
  • Länderverzeichnis
  • Für 7 Tage
  • Wassertemperatur
  • Satellitenkarten
  • Wetterkarte
  • Widgets
  • user-avatar
    Anmelden

    Stündliche Wetter Kalgoorlie

    Heute, 25 September, Montag

    Zeit Temperatur Niederschläge Wind Luftdruck Luftfeuchtigkeit
    00:00 +14°C° 0,1 mm 4 m/S 722 mmHg 62%
    01:00 +14°C° 0,1 mm 4 m/S 722 mmHg 66%
    02:00 +14°C° 0 mm 4 m/S 722 mmHg 67%
    03:00 +14°C° 0,2 mm 4 m/S 722 mmHg 70%
    04:00 +13°C° 0,2 mm 4 m/S 722 mmHg 72%
    05:00 +13°C° 0,2 mm 4 m/S 722 mmHg 74%
    06:00 +14°C° 0,1 mm 5 m/S 722 mmHg 69%
    07:00 +14°C° 0,1 mm 6 m/S 722 mmHg 65%
    08:00 +14°C° 0 mm 6 m/S 723 mmHg 62%
    09:00 +15°C° 0,2 mm 7 m/S 722 mmHg 57%
    10:00 +15°C° 0,2 mm 8 m/S 722 mmHg 52%
    11:00 +16°C° 0,2 mm 9 m/S 722 mmHg 46%
    12:00 +16°C° 0,1 mm 9 m/S 722 mmHg 45%
    13:00 +17°C° 0,1 mm 9 m/S 722 mmHg 43%
    14:00 +17°C° 0 mm 8 m/S 721 mmHg 44%
    15:00 +16°C° 0,1 mm 8 m/S 721 mmHg 44%
    16:00 +16°C° 0,1 mm 8 m/S 721 mmHg 43%
    17:00 +16°C° 0,1 mm 8 m/S 721 mmHg 43%
    18:00 +16°C° 0,1 mm 7 m/S 721 mmHg 45%
    19:00 +15°C° 0,1 mm 6 m/S 721 mmHg 48%
    20:00 +15°C° 0,1 mm 5 m/S 721 mmHg 50%
    21:00 +14°C° 0,2 mm 6 m/S 721 mmHg 52%
    22:00 +14°C° 0,2 mm 6 m/S 722 mmHg 53%
    23:00 +12°C° 0,2 mm 7 m/S 722 mmHg 55%

    Morgen, 26 September, Dienstag

    Zeit Temperatur Niederschläge Wind Luftdruck Luftfeuchtigkeit
    00:00 +12°C° 0 mm 7 m/S 721 mmHg 59%
    01:00 +11°C° 0 mm 7 m/S 721 mmHg 63%
    02:00 +10°C° 0 mm 6 m/S 721 mmHg 67%
    03:00 +10°C° 0 mm 7 m/S 721 mmHg 71%
    04:00 +9°C° 0 mm 7 m/S 722 mmHg 74%
    05:00 +9°C° 0 mm 7 m/S 722 mmHg 78%
    06:00 +9°C° 0 mm 8 m/S 722 mmHg 73%
    07:00 +10°C° 0 mm 8 m/S 723 mmHg 68%
    08:00 +10°C° 0 mm 9 m/S 723 mmHg 64%
    09:00 +11°C° 0 mm 10 m/S 723 mmHg 56%
    10:00 +13°C° 0 mm 10 m/S 724 mmHg 48%
    11:00 +16°C° 0 mm 10 m/S 724 mmHg 41%
    12:00 +16°C° 0 mm 11 m/S 723 mmHg 42%
    13:00 +16°C° 0 mm 11 m/S 723 mmHg 43%
    14:00 +15°C° 0 mm 12 m/S 723 mmHg 45%
    15:00 +14°C° 0 mm 12 m/S 723 mmHg 47%
    16:00 +14°C° 0 mm 11 m/S 724 mmHg 49%
    17:00 +14°C° 0 mm 11 m/S 724 mmHg 51%
    18:00 +13°C° 0 mm 10 m/S 725 mmHg 55%
    19:00 +12°C° 0 mm 9 m/S 726 mmHg 60%
    20:00 +11°C° 0 mm 8 m/S 726 mmHg 65%
    21:00 +10°C° 0 mm 8 m/S 727 mmHg 67%
    22:00 +10°C° 0 mm 7 m/S 727 mmHg 70%
    23:00 +9°C° 0 mm 6 m/S 728 mmHg 72%

    übermorgen, 27 September, Mittwoch

    Zeit Temperatur Niederschläge Wind Luftdruck Luftfeuchtigkeit
    00:00 +9°C° 0 mm 6 m/S 728 mmHg 75%
    01:00 +8°C° 0 mm 6 m/S 728 mmHg 78%
    02:00 +8°C° 0 mm 5 m/S 728 mmHg 82%
    03:00 +7°C° 0 mm 5 m/S 728 mmHg 84%
    04:00 +7°C° 0 mm 5 m/S 729 mmHg 86%
    05:00 +6°C° 0 mm 5 m/S 729 mmHg 88%
    06:00 +7°C° 0 mm 5 m/S 730 mmHg 80%
    07:00 +8°C° 0 mm 5 m/S 730 mmHg 72%
    08:00 +9°C° 0 mm 6 m/S 731 mmHg 64%
    09:00 +12°C° 0 mm 5 m/S 731 mmHg 55%
    10:00 +13°C° 0 mm 5 m/S 731 mmHg 45%
    11:00 +15°C° 0 mm 5 m/S 731 mmHg 36%
    12:00 +15°C° 0 mm 5 m/S 730 mmHg 33%
    13:00 +16°C° 0 mm 5 m/S 730 mmHg 30%
    14:00 +17°C° 0 mm 5 m/S 729 mmHg 27%
    15:00 +18°C° 0 mm 4 m/S 730 mmHg 27%
    16:00 +18°C° 0 mm 4 m/S 730 mmHg 26%
    17:00 +18°C° 0 mm 4 m/S 730 mmHg 26%
    18:00 +17°C° 0 mm 4 m/S 730 mmHg 29%
    19:00 +16°C° 0 mm 3 m/S 731 mmHg 32%
    20:00 +14°C° 0 mm 3 m/S 731 mmHg 35%
    21:00 +13°C° 0 mm 3 m/S 732 mmHg 40%
    22:00 +12°C° 0 mm 4 m/S 732 mmHg 45%
    23:00 +11°C° 0 mm 4 m/S 732 mmHg 49%

    28 September, Donnerstag

    Zeit Temperatur Niederschläge Wind Luftdruck Luftfeuchtigkeit
    00:00 +11°C° 0 mm 4 m/S 731 mmHg 51%
    01:00 +10°C° 0 mm 3 m/S 731 mmHg 54%
    02:00 +10°C° 0 mm 3 m/S 731 mmHg 56%
    03:00 +9°C° 0 mm 3 m/S 731 mmHg 58%
    04:00 +9°C° 0 mm 2 m/S 731 mmHg 59%
    05:00 +9°C° 0 mm 2 m/S 731 mmHg 61%
    06:00 +10°C° 0 mm 2 m/S 731 mmHg 58%
    07:00 +12°C° 0 mm 2 m/S 731 mmHg 54%
    08:00 +13°C° 0 mm 2 m/S 732 mmHg 51%
    09:00 +15°C° 0 mm 2 m/S 731 mmHg 44%
    10:00 +17°C° 0 mm 3 m/S 731 mmHg 37%
    11:00 +18°C° 0 mm 3 m/S 731 mmHg 30%
    12:00 +19°C° 0 mm 3 m/S 730 mmHg 28%
    13:00 +20°C° 0 mm 3 m/S 729 mmHg 25%
    14:00 +21°C° 0 mm 4 m/S 729 mmHg 22%
    15:00 +21°C° 0 mm 4 m/S 729 mmHg 23%
    16:00 +20°C° 0 mm 3 m/S 729 mmHg 23%
    17:00 +20°C° 0 mm 3 m/S 729 mmHg 24%
    18:00 +20°C° 0 mm 4 m/S 729 mmHg 25%
    19:00 +19°C° 0 mm 4 m/S 730 mmHg 27%
    20:00 +17°C° 0 mm 5 m/S 730 mmHg 29%
    21:00 +16°C° 0 mm 5 m/S 730 mmHg 30%
    22:00 +15°C° 0 mm 5 m/S 730 mmHg 32%
    23:00 +15°C° 0 mm 5 m/S 730 mmHg 34%

    29 September, Freitag

    Zeit Temperatur Niederschläge Wind Luftdruck Luftfeuchtigkeit
    00:00 +14°C° 0 mm 4 m/S 730 mmHg 38%
    01:00 +13°C° 0 mm 4 m/S 730 mmHg 42%
    02:00 +13°C° 0 mm 4 m/S 730 mmHg 46%
    03:00 +12°C° 0 mm 4 m/S 731 mmHg 50%
    04:00 +12°C° 0 mm 5 m/S 731 mmHg 55%
    05:00 +10°C° 0 mm 5 m/S 731 mmHg 60%
    06:00 +12°C° 0 mm 5 m/S 732 mmHg 56%
    07:00 +13°C° 0 mm 6 m/S 733 mmHg 52%
    08:00 +15°C° 0 mm 6 m/S 734 mmHg 49%
    09:00 +16°C° 0 mm 6 m/S 734 mmHg 43%
    10:00 +19°C° 0 mm 6 m/S 734 mmHg 37%
    11:00 +21°C° 0 mm 6 m/S 733 mmHg 31%
    12:00 +21°C° 0 mm 6 m/S 733 mmHg 29%
    13:00 +22°C° 0 mm 6 m/S 733 mmHg 27%
    14:00 +22°C° 0 mm 6 m/S 732 mmHg 25%
    15:00 +22°C° 0 mm 7 m/S 732 mmHg 27%
    16:00 +21°C° 0 mm 8 m/S 733 mmHg 28%
    17:00 +21°C° 0 mm 8 m/S 733 mmHg 30%
    18:00 +18°C° 0 mm 9 m/S 734 mmHg 37%
    19:00 +17°C° 0 mm 9 m/S 734 mmHg 43%
    20:00 +14°C° 0 mm 10 m/S 735 mmHg 49%
    21:00 +13°C° 0 mm 9 m/S 735 mmHg 53%
    22:00 +12°C° 0 mm 9 m/S 735 mmHg 57%
    23:00 +11°C° 0 mm 8 m/S 736 mmHg 60%

    30 September, Samstag

    Zeit Temperatur Niederschläge Wind Luftdruck Luftfeuchtigkeit
    00:00 +11°C° 0 mm 7 m/S 736 mmHg 64%
    01:00 +10°C° 0 mm 7 m/S 736 mmHg 67%
    02:00 +9°C° 0 mm 6 m/S 736 mmHg 71%
    03:00 +9°C° 0 mm 6 m/S 736 mmHg 73%
    04:00 +8°C° 0 mm 6 m/S 737 mmHg 75%
    05:00 +8°C° 0 mm 6 m/S 737 mmHg 78%
    06:00 +9°C° 0 mm 6 m/S 737 mmHg 73%
    07:00 +10°C° 0 mm 6 m/S 738 mmHg 69%
    08:00 +11°C° 0 mm 7 m/S 738 mmHg 65%
    09:00 +14°C° 0 mm 7 m/S 738 mmHg 55%
    10:00 +16°C° 0 mm 7 m/S 737 mmHg 46%
    11:00 +18°C° 0 mm 7 m/S 737 mmHg 36%
    12:00 +20°C° 0 mm 7 m/S 736 mmHg 32%
    13:00 +21°C° 0 mm 7 m/S 735 mmHg 29%
    14:00 +22°C° 0 mm 6 m/S 735 mmHg 25%
    15:00 +22°C° 0 mm 7 m/S 735 mmHg 26%
    16:00 +22°C° 0 mm 7 m/S 735 mmHg 27%
    17:00 +22°C° 0 mm 7 m/S 735 mmHg 27%
    18:00 +21°C° 0 mm 6 m/S 735 mmHg 31%
    19:00 +20°C° 0 mm 6 m/S 736 mmHg 35%
    20:00 +17°C° 0 mm 6 m/S 736 mmHg 40%
    21:00 +16°C° 0 mm 7 m/S 736 mmHg 46%
    22:00 +15°C° 0 mm 8 m/S 736 mmHg 53%
    23:00 +13°C° 0 mm 8 m/S 736 mmHg 59%
    Mehr zeigen